Location: Hinterschlag
(48.6500°N, 13.8833°E)
Time: 15:13:51
(UTC+00:00)

Daily predictions for brighter satellites

Satellite Brightness Start Highest point End
(mag) Time Altitude Azimuth Time Altitude Azimuth Time Altitude Azimuth
Cosmos 1745 Rocket 4.0 19:41:29 10° S 19:47:38 71° E 19:53:53 10° NNE
Landsat 7 4.1 19:44:02 10° SSE 19:48:42 58° ENE 19:53:23 10° N
Cosmos 1125 Rocket 4.3 19:45:38 10° NNW 19:50:42 50° WSW 19:55:45 10° S
USA 267 4.0 19:49:50 10° E 19:56:11 54° NNE 20:02:32 10° NW
Meteor 1-21 Rocket 4.4 19:50:49 10° S 19:56:43 85° E 20:02:41 10° NNE
SPOT 1/Viking Rocket 3.8 19:52:02 10° SSE 19:57:05 60° ENE 20:02:11 10° N
Alouette 2 Rocket 3.7 19:57:03 10° N 20:00:46 60° ENE 20:05:39 10° SSE
Cosmos 1953 Rocket 4.3 19:56:59 10° SSE 20:00:55 35° E 20:04:52 10° NNE
Cosmos 2322 Rocket 2.7 19:56:48 10° SW 20:02:22 65° WNW 20:07:59 10° NNE
SL-08 ROCKET BODY 4.5 19:57:10 10° S 20:03:07 90° NW 20:09:13 10° N
NOSS 7 (D) 3.7 20:01:38 10° SW 20:04:27 81° SE 20:07:07 10° NE
Cosmos 2237 4.2 19:59:20 10° SSW 20:05:03 81° ESE 20:10:50 10° NNE
Cosmos 2084 4.4 20:02:38 10° NW 20:06:56 44° NE 20:11:11 10° ESE
Cosmos 1328 3.9 20:03:19 10° S 20:07:13 59° E 20:11:09 10° NNE
SAR-Lupe-2 4.0 20:06:14 10° NNE 20:09:40 41° E 20:13:05 10° S
Cosmos 1455 2.8 20:08:05 10° NNW 20:11:52 57° W 20:15:38 10° S
Cosmos 1825 Rocket 3.6 20:12:08 10° S 20:16:33 77° E 20:21:02 10° NNE
ATLAS CENTAUR R/B 1.8 20:15:25 10° NNW 20:19:01 45° NE 20:22:16 12° ESE
Cosmos 1703 3.3 20:17:16 10° S 20:21:08 85° W 20:25:03 10° N
COSMOS 2428 3.3 20:17:08 10° S 20:22:17 37° ESE 20:27:27 10° NE
Cosmos 1844 3.9 20:18:21 10° NNW 20:24:08 76° WSW 20:29:32 12° SSE
SL-24 R/B - RUBIN 2 4.5 20:19:10 10° SSW 20:25:07 64° ESE 20:31:41 10° NE
Cosmos 2322 3.8 20:20:27 10° SSW 20:26:06 64° ESE 20:31:46 10° NNE
Meteor 1-27 4.5 20:25:03 10° N 20:30:43 62° ENE 20:35:46 14° SSE
CZ-4B DEB 4.4 20:28:15 13° S 20:31:15 83° WSW 20:34:38 10° NNW
Cosmos 1709 Rocket 4.0 20:26:25 10° S 20:32:42 86° E 20:39:06 10° N
NOSS 3-3 (A) 4.2 20:29:07 10° SSW 20:34:40 47° ESE 20:40:52 10° NE
NOSS 3-3 (C) 4.2 20:29:13 10° S 20:34:46 46° ESE 20:40:59 10° NE
Terra 2.1 20:31:40 14° SSE 20:35:40 58° ENE 20:40:21 10° N
Cosmos 2237 Rocket 3.6 20:33:12 14° SE 20:36:11 20° E 20:40:13 10° NE
Atlas Centaur 2 4.1 20:33:02 10° SSW 20:36:32 15° S 20:38:47 13° SSE
CARTOSAT-1 3.6 20:32:57 13° SSE 20:36:49 90° NE 20:41:10 10° NNW
Cosmos 2333 4.2 20:32:16 10° SSW 20:37:52 75° ESE 20:43:36 10° NNE
Cosmos 2219 Rocket 2.3 20:32:52 10° S 20:38:16 54° ESE 20:43:44 10° NE
IGS 5A 4.4 20:36:08 10° S 20:40:06 43° W 20:44:05 10° NNW
Cosmos 2360 Rocket 2.8 20:34:41 10° SW 20:40:16 61° WNW 20:45:55 10° NNE
Cosmos 1538 Rocket 4.2 20:35:54 10° S 20:41:06 54° ESE 20:46:18 10° NNE
Cosmos 2184 Rocket 4.5 20:42:26 14° SSE 20:47:25 45° E 20:53:22 10° NNE
Cosmos 2333 Rocket 2.2 20:42:25 10° SSW 20:48:04 68° ESE 20:53:46 10° NNE
Cosmos 1315 Rocket 2.8 20:47:07 10° N 20:51:14 84° ENE 20:54:13 18° SSE
ATLAS 2AS CENTAUR R/B 3.5 20:44:23 10° NW 20:51:54 51° NE 20:58:48 10° ESE
Resurs 01 Rocket 4.1 20:49:28 10° SW 20:52:15 16° W 20:55:04 10° NW
Cosmos-2242 4.3 20:50:34 10° NNW 20:54:34 36° W 20:58:33 10° SSW
Cosmos 1818 4.3 20:50:26 10° SW 20:55:46 57° NW 21:01:10 10° NNE
Cosmos 773 Rocket 4.2 20:52:48 10° SSW 20:58:06 77° WNW 21:03:26 10° NNE
Cosmos 2221 2.7 20:55:21 10° N 20:59:42 59° ENE 21:02:29 21° SSE
ERS-1 Rocket 3.5 20:56:51 13° S 21:01:19 56° W 21:06:18 10° NNW
GEOS 3 Rocket 4.0 20:57:11 10° NE 21:02:34 70° NW 21:07:55 10° SW
USA 215 3.2 20:59:15 10° ENE 21:05:50 71° SE 21:12:21 10° SW
Cosmos 1892 3.4 21:07:02 24° SE 21:08:42 36° E 21:12:12 10° NNE
Cosmos 2278 Rocket 2.3 21:03:28 10° NNW 21:09:09 71° ENE 21:13:09 20° SE
ATLAS 5 CENTAUR R/B 2.8 21:08:26 10° WSW 21:12:31 45° NW 21:17:11 10° NE
Cosmos 1844 Rocket 4.2 21:08:56 10° NW 21:13:31 27° WSW 21:18:05 10° SSW
Gblst 52 Del rocket 4.3 21:09:55 10° WNW 21:15:36 70° SSW 21:20:33 17° SE
Cosmos 1943 Rocket 4.4 21:12:41 10° N 21:16:40 19° NE 21:20:37 10° E
SPOT 5 3.7 21:13:56 14° S 21:18:05 45° W 21:22:43 10° NNW
SL-16 R/B 3.8 21:18:56 15° ESE 21:20:34 17° E 21:24:03 10° ENE
Lacrosse 5 rocket 3.6 21:18:04 10° NW 21:21:32 25° N 21:24:51 10° ENE
Cosmos 2056 Rocket 4.4 21:18:47 10° NNW 21:23:56 42° ENE 21:27:39 18° ESE
Nadezhda 3 Rocket 4.2 21:18:38 10° N 21:25:00 64° ENE 21:29:11 22° SSE
Cosmos 2058 3.0 21:25:00 26° SSE 21:27:08 60° E 21:31:14 10° NNE
Cosmos 2154 Rocket 4.2 21:23:04 21° SSE 21:27:11 58° E 21:33:16 10° NNE
BREEZE M DEB (TANK) 4.1 21:27:05 10° WSW 21:27:38 12° SW 21:27:38 12° SW
Cosmos 1408 3.2 21:29:06 30° SE 21:30:10 37° E 21:33:30 10° NNE
Meteor 2-17 Rocket 4.4 21:27:25 19° S 21:31:57 79° E 21:38:02 10° NNE
In-Cosmos 22 Rocket 4.0 21:29:55 21° S 21:33:33 76° E 21:38:52 10° NNE
Cosmos 2074 Rocket 4.0 21:29:15 15° S 21:34:31 83° W 21:40:46 10° N
TSX-5 3.7 21:32:19 10° NW 21:35:48 74° WSW 21:37:36 31° SSE
Cosmos 1076 Rocket 3.5 21:36:08 28° S 21:38:20 71° E 21:42:37 10° NNE
Cosmos 1680 Rocket 3.7 21:35:41 23° S 21:38:53 58° ESE 21:44:07 10° NNE
USA 267 3.2 21:34:05 19° SE 21:39:03 76° SW 21:45:39 10° WNW
CZ-4C R/B 4.4 21:39:16 10° NW 21:45:07 31° NNE 21:51:50 10° E
Cosmos 2151 3.6 21:47:19 29° SE 21:48:49 40° E 21:52:51 10° NNE
COSMOS 2455 4.2 21:43:37 10° NNW 21:49:04 34° NE 21:54:31 10° ESE
EO 1 Delta rocket 4.4 21:44:24 10° NNE 21:49:25 61° E 21:52:50 25° S
Cosmos 923 Rocket 4.0 21:52:20 17° SSW 21:56:25 82° WNW 22:01:45 10° NNE
Cosmos 2327 Rocket 4.5 21:52:14 20° SSW 21:56:42 82° W 22:02:52 10° N
ATLAS CENTAUR R/B 2.8 21:54:53 10° WNW 21:57:36 20° WSW 21:58:26 18° SW
Cosmos 1825 2.3 21:58:09 39° SSE 21:59:15 57° E 22:02:59 10° NNE
ALOS 2 3.2 21:58:03 27° SE 22:00:05 49° ENE 22:04:20 10° N
Cosmos 1340 4.4 21:59:38 19° ESE 22:00:15 19° E 22:02:59 10° NE
Cosmos 2369 Rocket 4.0 21:56:44 10° N 22:01:18 25° NE 22:05:52 10° E
Cosmos 1980 3.6 21:56:55 17° SSW 22:01:18 88° ESE 22:07:00 10° NNE
Cosmos 1151 Rocket 4.0 21:57:21 10° N 22:01:23 36° ENE 22:03:13 25° ESE
Cosmos 44 3.8 22:05:15 30° SE 22:05:46 31° ESE 22:09:41 10° NE
COSMOS 2428 3.8 22:01:07 10° SW 22:06:29 43° NW 22:11:55 10° NNE
Cosmos 371 Rocket 4.1 22:04:22 10° NNW 22:09:03 44° ENE 22:11:47 22° ESE
GP-B 3.6 22:05:28 10° NNE 22:09:46 46° E 22:11:23 31° SE
Cosmos 1295 Rocket 4.4 22:06:31 24° S 22:10:24 88° W 22:16:33 10° N
NOSS 0 Rocket 4.2 22:07:39 10° SW 22:13:47 70° WNW 22:19:59 10° NNE
Terra 3.8 22:10:34 11° SW 22:13:47 19° W 22:17:12 10° NW
Cosmos 1624 Rocket 3.9 22:09:14 10° NNW 22:14:30 82° WSW 22:16:57 32° SSE
NOSS 3-4 (A) 3.9 22:08:16 10° NW 22:15:11 69° SW 22:19:47 26° SSE
NOSS 3-4 (C) 3.9 22:08:22 10° NW 22:15:18 70° SW 22:19:55 26° SSE
Nimbus 7 Rocket 4.5 22:13:24 10° NNE 22:19:20 65° ESE 22:22:22 29° S
SL-4 R/B 2.8 22:19:54 19° NE 22:19:54 19° NE 22:21:03 10° NNE
Cosmos 2237 Rocket 2.4 22:14:58 16° SW 22:19:37 74° WNW 22:25:22 10° NNE
Genesis I 3.1 22:18:36 31° SW 22:20:21 87° SE 22:24:16 10° NE
CREW DRAGON DEMO-1 DEB 4.0 22:22:53 30° E 22:22:53 30° E 22:24:41 10° ENE
Cosmos 2344 3.5 22:16:02 15° SSW 22:22:23 72° SE 22:30:27 10° NE
Cosmos 2219 Rocket 3.9 22:17:34 10° WSW 22:22:31 31° NW 22:27:31 10° NNE
Cosmos 1346 Rocket 4.1 22:28:04 24° ESE 22:28:49 25° E 22:32:06 10° NE
Thor Agena Rocket 3.9 22:25:03 10° N 22:30:06 61° WNW 22:33:18 22° SW
DELTA 2 R/B (1) 4.3 22:25:53 10° SW 22:36:22 - ESE 22:30:03 31° S
Cosmos 2333 Rocket 4.2 22:28:03 10° WSW 22:32:50 27° NW 22:37:42 10° NNE
Cosmos 1515 Rocket 4.0 22:37:21 10° N 22:41:38 53° ENE 22:43:15 34° SE
BREEZE-M DEB (TANK) 2.2 22:38:54 10° WNW 22:41:22 37° WSW 22:41:22 37° WSW
ATLAS 2AS CENTAUR R/B 3.1 22:35:45 10° NW 22:42:59 52° WSW 22:46:24 29° S
EO 1 Del DPAF 4.3 22:39:41 10° N 22:43:12 38° WNW 22:45:00 23° WSW
Cosmos 1766 Rocket 3.5 22:44:24 38° SSW 22:46:02 80° W 22:50:27 10° N
USA 215 4.0 22:42:22 10° NE 22:48:45 56° NNW 22:55:07 10° W
Gbstr 26 Del rocket 3.7 22:49:28 31° ESE 22:49:28 31° ESE 22:52:30 10° ENE
Okean 3 Rocket 3.8 22:47:02 34° SSW 22:48:52 66° WNW 22:53:18 10° N
Cosmos 1328 Rocket 3.4 22:44:42 10° NNW 22:49:03 79° W 22:50:25 42° S
Aureole 2 Rocket 2.8 22:46:33 10° NW 22:48:59 39° W 22:48:59 39° W
Cosmos 1606 3.1 22:47:32 10° NNW 22:51:21 55° W 22:52:19 42° SW
Cosmos 2278 Rocket 3.8 22:48:32 10° NW 22:52:39 21° W 22:54:59 16° SW
Cosmos 2218 Rocket 4.0 22:50:54 30° S 22:54:19 89° E 23:00:40 10° N
Cosmos 2297 3.8 22:48:59 10° NNW 22:54:41 64° WSW 22:57:11 33° S
Cosmos 864 Rocket 4.5 22:52:05 31° S 22:55:20 84° E 23:01:40 10° N
Cosmos 304 Rocket 4.2 22:50:46 10° NNW 22:55:32 56° ENE 22:58:03 26° SE
Cosmos 2228 Rocket 3.9 22:52:53 10° N 22:57:18 44° ENE 22:59:19 27° SE
Cosmos 1420 Rocket 4.1 22:53:12 10° NNW 22:58:26 66° WSW 23:00:36 35° S
Cosmos 2366 rocket 4.0 22:56:35 30° S 23:00:00 87° W 23:06:24 10° N
Cosmos 1943 Rocket 2.3 22:55:43 10° NNW 23:01:25 76° ENE 23:04:40 26° SE
Lacrosse 5 rocket 2.4 22:57:38 10° NW 23:01:29 42° NNE 23:05:07 10° E
Cosmos 1633 2.9 23:01:11 46° SE 23:01:47 52° E 23:05:19 10° NNE
Landsat 4 4.1 22:59:32 10° NNE 23:03:15 50° E 23:03:59 43° SE
SL-16 R/B 2.2 23:00:47 28° SSW 23:03:55 86° WNW 23:09:40 10° NNE
Cosmos 1821 Rocket 4.5 23:05:52 27° SSE 23:08:57 48° E 23:14:47 10° NNE
YAOGAN 11 4.0 23:09:09 41° S 23:10:38 85° WSW 23:15:06 10° NNW
Cosmos 1743 Rocket 3.7 23:12:36 41° SSE 23:13:56 63° E 23:18:14 10° NNE
Cosmos 332 Rocket 3.8 23:15:03 10° NNW 23:19:49 64° WSW 23:21:28 39° S
Cosmos 1048 Rocket 4.1 23:19:32 35° S 23:21:40 62° ESE 23:26:53 10° NNE
USA 267 4.3 23:21:25 23° SW 23:22:47 24° SW 23:27:57 10° WNW
Meteor 2-3 Rocket 3.8 23:21:02 30° SSW 23:23:52 70° WNW 23:29:36 10° N
Helios 1A 3.4 23:24:53 38° SW 23:25:56 47° W 23:30:00 10° NNW
Cosmos 405 3.0 23:25:04 10° NNW 23:28:36 67° W 23:29:08 56° SSW
Meteor 1-29 4.2 23:25:42 10° NE 23:28:41 28° E 23:29:10 27° ESE
Meteor 1-10 Rocket 4.4 23:27:06 10° N 23:32:40 65° ENE 23:35:49 26° SSE
Cosmos 1452 Rocket 3.9 23:28:05 10° NNW 23:33:11 50° WSW 23:35:06 34° SSW
CZ-4C R/B 3.1 23:27:41 10° NW 23:34:44 76° NE 23:42:57 10° SE
Meteor 2-6 Rocket 4.1 23:29:36 10° N 23:35:08 80° ENE 23:37:54 30° SSE
PSLV R/B 3.5 23:30:57 10° NNE 23:35:10 74° ESE 23:36:34 41° S
Cosmos 389 Rocket 4.4 23:32:21 10° NNE 23:35:16 24° ENE 23:37:05 16° ESE
COSMOS 2455 2.9 23:29:26 10° NW 23:35:25 63° WSW 23:38:24 30° S
Cosmos 1340 3.8 23:34:23 27° WSW 23:35:38 34° WNW 23:39:07 10° N
ALOS 2 4.3 23:35:27 18° WSW 23:36:41 20° W 23:39:56 10° NW
Cosmos 1110 Rocket 4.1 23:31:55 10° NNW 23:37:14 79° ENE 23:40:16 26° SSE
Cosmos 1408 Rocket 4.4 23:35:56 27° SW 23:37:44 40° WNW 23:41:56 10° N
SL-16 R/B 3.8 23:32:23 10° SE 23:37:58 36° ENE 23:43:36 10° N
Cosmos 1603 4.0 23:36:25 32° S 23:38:53 55° ESE 23:44:28 10° NE
Cosmos 1727 Rocket 4.4 23:38:58 10° NNW 23:44:57 50° W 23:48:04 27° SSW
APEX 4.5 23:43:10 10° WNW 23:44:22 18° W 23:44:22 18° W
Resurs 1-4 Rocket 3.8 23:41:21 10° NE 23:45:33 23° E 23:48:45 14° SE
Cosmos 2369 Rocket 2.1 23:40:19 10° NNW 23:45:55 73° WSW 23:48:49 29° SSE
Cosmos 1500 Rocket 3.7 23:44:49 37° SSW 23:46:26 64° WNW 23:50:50 10° N
Cosmos 44 4.2 23:43:38 15° WSW 23:46:52 40° NW 23:51:07 10° NNE
SeaSat 1 3.7 23:45:08 10° NE 23:49:25 29° ESE 23:51:20 22° SE
ISS -1.9 23:51:00 20° ESE 23:51:00 20° ESE 23:52:43 10° E
Helios 1B rocket 2.4 23:49:48 10° NNE 23:53:57 85° WNW 23:55:23 40° SSW
